Latest Weather Observations for Point Wilson

IDV60801

Issued at 2:05 am EST Thursday 2 October 2014 (issued every 30 minutes, with the page automatically refreshed every 10 minutes)

About weather observations | Map of weather stations | Latest weather observations for VIC | Other Formats
Station Details ID: 087166 Name: POINT WILSON Lat: -38.10 Lon: 144.54 Height: 18.0 m
Data from the previous 72 hours. | See also: Recent months at Point Wilson
Date/Time
EST
Temp
°C
App
Temp
°C
Dew
Point
Rel
Hum
%
Delta-T
°C
Wind Press
QNH
hPa
Press
MSL
hPa
Rain
since 9 am
mm
Dir
 
Spd
km/h
Gust
km/h
Spd
kts
Gust
kts
02/02:00am - - - - - WNW 19 24 10 13 - - -
02/01:30am - - - - - WNW 19 22 10 12 - - -
02/01:00am - - - - - NW 17 20 9 11 - - -
02/12:30am - - - - - NW 19 22 10 12 - - -
02/12:00am - - - - - NW 20 24 11 13 - - -
 
Date/Time
EST
Temp
°C
App
Temp
°C
Dew
Point
Rel
Hum
%
Delta-T
°C
Wind Press
QNH
hPa
Press
MSL
hPa
Rain
since 9 am
mm
Dir
 
Spd
km/h
Gust
km/h
Spd
kts
Gust
kts
01/11:30pm - - - - - WNW 19 20 10 11 - - -
01/11:00pm - - - - - NW 19 20 10 11 - - -
01/10:30pm - - - - - NW 19 22 10 12 - - -
01/10:00pm - - - - - W 26 30 14 16 - - -
01/09:30pm - - - - - WSW 28 33 15 18 - - -
01/09:00pm - - - - - WSW 30 37 16 20 - - -
01/08:30pm - - - - - WSW 30 37 16 20 - - -
01/08:00pm - - - - - WSW 32 41 17 22 - - -
01/07:30pm - - - - - WSW 30 35 16 19 - - -
01/07:00pm - - - - - WSW 32 35 17 19 - - -
01/06:30pm - - - - - WSW 33 41 18 22 - - -
01/06:00pm - - - - - WSW 30 33 16 18 - - -
01/05:30pm - - - - - WSW 28 33 15 18 - - -
01/05:00pm - - - - - SSW 20 24 11 13 - - -
01/04:30pm - - - - - SSW 17 20 9 11 - - -
01/04:00pm - - - - - SSW 19 26 10 14 - - -
01/03:30pm - - - - - S 15 19 8 10 - - -
01/03:00pm - - - - - SSW 24 28 13 15 - - -
01/02:30pm - - - - - W 20 26 11 14 - - -
01/02:00pm - - - - - SSW 15 19 8 10 - - -
01/01:30pm - - - - - S 20 22 11 12 - - -
01/01:14pm - - - - - SSW 32 50 17 27 - - -
01/01:08pm - - - - - SSW 37 50 20 27 - - -
01/01:00pm - - - - - WSW 15 20 8 11 - - -
01/12:30pm - - - - - SW 20 26 11 14 - - -
01/12:00pm - - - - - SW 28 32 15 17 - - -
01/11:30am - - - - - SSW 30 35 16 19 - - -
01/11:09am - - - - - SSW 41 50 22 27 - - -
01/11:00am - - - - - WSW 20 30 11 16 - - -
01/10:30am - - - - - W 22 28 12 15 - - -
01/10:00am - - - - - WSW 26 33 14 18 - - -
01/09:30am - - - - - W 28 32 15 17 - - -
01/09:00am - - - - - W 28 32 15 17 - - -
01/08:30am - - - - - W 33 37 18 20 - - -
01/08:00am - - - - - W 30 37 16 20 - - -
01/07:30am - - - - - W 33 41 18 22 - - -
01/07:00am - - - - - W 35 39 19 21 - - -
01/06:30am - - - - - WNW 30 39 16 21 - - -
01/06:00am - - - - - W 30 37 16 20 - - -
01/05:30am - - - - - WNW 30 35 16 19 - - -
01/05:00am - - - - - WNW 30 37 16 20 - - -
01/04:30am - - - - - WNW 32 37 17 20 - - -
01/04:00am - - - - - WNW 35 41 19 22 - - -
01/03:30am - - - - - W 39 46 21 25 - - -
01/03:00am - - - - - W 39 48 21 26 - - -
01/02:30am - - - - - W 39 46 21 25 - - -
01/02:00am - - - - - W 39 48 21 26 - - -
01/01:30am - - - - - W 43 48 23 26 - - -
01/01:00am - - - - - W 41 52 22 28 - - -
01/12:30am - - - - - W 46 59 25 32 - - -
01/12:00am - - - - - W 43 57 23 31 - - -
 
Date/Time
EST
Temp
°C
App
Temp
°C
Dew
Point
Rel
Hum
%
Delta-T
°C
Wind Press
QNH
hPa
Press
MSL
hPa
Rain
since 9 am
mm
Dir
 
Spd
km/h
Gust
km/h
Spd
kts
Gust
kts
30/11:30pm - - - - - W 39 50 21 27 - - -
30/11:00pm - - - - - W 39 48 21 26 - - -
30/10:30pm - - - - - W 46 56 25 30 - - -
30/10:00pm - - - - - W 48 69 26 37 - - -
30/09:59pm - - - - - W 48 69 26 37 - - -
30/09:30pm - - - - - W 37 46 20 25 - - -
30/09:00pm - - - - - W 39 48 21 26 - - -
30/08:30pm - - - - - W 33 44 18 24 - - -
30/08:00pm - - - - - W 33 43 18 23 - - -
30/07:35pm - - - - - W 44 63 24 34 - - -
30/07:30pm - - - - - W 50 63 27 34 - - -
30/07:20pm - - - - - W 39 65 21 35 - - -
30/07:00pm - - - - - W 44 52 24 28 - - -
30/06:30pm - - - - - W 48 59 26 32 - - -
30/06:21pm - - - - - W 50 57 27 31 - - -
30/06:00pm - - - - - WSW 48 63 26 34 - - -
30/05:43pm - - - - - W 57 76 31 41 - - -
30/05:38pm - - - - - W 63 72 34 39 - - -
30/05:30pm - - - - - W 43 61 23 33 - - -
30/05:27pm - - - - - W 41 61 22 33 - - -
30/05:00pm - - - - - WNW 41 50 22 27 - - -
30/04:30pm - - - - - WNW 35 43 19 23 - - -
30/04:00pm - - - - - W 52 76 28 41 - - -
30/03:59pm - - - - - W 52 76 28 41 - - -
30/03:31pm - - - - - WSW 59 87 32 47 - - -
30/03:30pm - - - - - WSW 59 72 32 39 - - -
30/03:01pm - - - - - WSW 56 80 30 43 - - -
30/03:00pm - - - - - W 56 80 30 43 - - -
30/02:59pm - - - - - WSW 56 85 30 46 - - -
30/02:30pm - - - - - W 76 98 41 53 - - -
30/02:20pm - - - - - W 78 106 42 57 - - -
30/02:19pm - - - - - W 70 89 38 48 - - -
30/02:05pm - - - - - NW 61 80 33 43 - - -
30/02:00pm - - - - - NW 65 80 35 43 - - -
30/01:30pm - - - - - NW 61 83 33 45 - - -
30/01:00pm - - - - - NNW 52 69 28 37 - - -
30/12:30pm - - - - - NNW 46 67 25 36 - - -
30/12:00pm - - - - - NNW 48 67 26 36 - - -
30/11:30am - - - - - NNW 48 67 26 36 - - -
30/11:29am - - - - - NNW 48 67 26 36 - - -
30/11:00am - - - - - NNW 48 63 26 34 - - -
30/10:38am - - - - - NNW 46 65 25 35 - - -
30/10:30am - - - - - NNW 44 57 24 31 - - -
30/10:00am - - - - - NW 50 61 27 33 - - -
30/09:30am - - - - - N 28 43 15 23 - - -
30/09:00am - - - - - N 33 37 18 20 - - -
30/08:30am - - - - - N 35 41 19 22 - - -
30/08:00am - - - - - N 33 39 18 21 - - -
30/07:30am - - - - - N 28 32 15 17 - - -
30/07:00am - - - - - N 24 26 13 14 - - -
30/06:30am - - - - - N 19 20 10 11 - - -
30/06:00am - - - - - NNW 17 20 9 11 - - -
30/05:30am - - - - - NNW 20 24 11 13 - - -
30/05:00am - - - - - N 20 26 11 14 - - -
30/04:30am - - - - - N 13 17 7 9 - - -
30/04:00am - - - - - NW 15 17 8 9 - - -
30/03:30am - - - - - NW 13 17 7 9 - - -
30/03:00am - - - - - NW 11 13 6 7 - - -
30/02:30am - - - - - NNW 11 13 6 7 - - -
30/02:00am - - - - - NNW 13 15 7 8 - - -
30/01:30am - - - - - CALM 0 0 0 0 - - -
30/01:00am - - - - - CALM 0 0 0 0 - - -
30/12:30am - - - - - SE 7 9 4 5 - - -
30/12:00am - - - - - SSW 11 13 6 7 - - -
 
Date/Time
EST
Temp
°C
App
Temp
°C
Dew
Point
Rel
Hum
%
Delta-T
°C
Wind Press
QNH
hPa
Press
MSL
hPa
Rain
since 9 am
mm
Dir
 
Spd
km/h
Gust
km/h
Spd
kts
Gust
kts
29/11:30pm - - - - - SSW 15 17 8 9 - - -
29/11:00pm - - - - - SSW 11 15 6 8 - - -
29/10:30pm - - - - - N 19 22 10 12 - - -
29/10:00pm - - - - - N 20 24 11 13 - - -
29/09:30pm - - - - - N 15 19 8 10 - - -
29/09:00pm - - - - - N 19 20 10 11 - - -
29/08:30pm - - - - - NNE 19 24 10 13 - - -
29/08:00pm - - - - - N 19 20 10 11 - - -
29/07:30pm - - - - - N 17 19 9 10 - - -
29/07:00pm - - - - - N 20 20 11 11 - - -
29/06:30pm - - - - - NNW 17 20 9 11 - - -
29/06:00pm - - - - - NW 26 30 14 16 - - -
29/05:30pm - - - - - NNW 24 30 13 16 - - -
29/05:00pm - - - - - NNW 30 35 16 19 - - -
29/04:30pm - - - - - N 32 39 17 21 - - -
29/04:00pm - - - - - NW 33 43 18 23 - - -
29/03:30pm - - - - - NNW 30 37 16 20 - - -
29/03:00pm - - - - - NNW 26 35 14 19 - - -
29/02:30pm - - - - - NW 26 35 14 19 - - -
29/02:00pm - - - - - NNW 24 35 13 19 - - -
29/01:30pm - - - - - NNW 24 37 13 20 - - -
29/01:00pm - - - - - NNW 26 35 14 19 - - -
29/12:30pm - - - - - NW 26 33 14 18 - - -
29/12:00pm - - - - - NW 24 32 13 17 - - -
29/11:30am - - - - - NW 26 35 14 19 - - -
29/11:00am - - - - - WNW 32 39 17 21 - - -
29/10:30am - - - - - W 28 39 15 21 - - -
29/10:00am - - - - - W 26 32 14 17 - - -
29/09:30am - - - - - W 24 32 13 17 - - -
29/09:00am - - - - - WNW 26 30 14 16 - - -
29/08:30am - - - - - WNW 24 28 13 15 - - -
29/08:00am - - - - - NW 26 33 14 18 - - -
29/07:30am - - - - - NNW 20 26 11 14 - - -
29/07:00am - - - - - NW 20 24 11 13 - - -
29/06:30am - - - - - WNW 26 33 14 18 - - -
29/06:00am - - - - - WNW 22 35 12 19 - - -
29/05:30am - - - - - W 32 39 17 21 - - -
29/05:00am - - - - - W 35 44 19 24 - - -
29/04:30am - - - - - W 33 43 18 23 - - -
29/04:00am - - - - - W 33 44 18 24 - - -
29/03:30am - - - - - WNW 30 39 16 21 - - -
29/03:00am - - - - - W 24 33 13 18 - - -
29/02:30am - - - - - W 24 33 13 18 - - -

Other Formats:

Comma delimited format used in spreadsheet applications
http://www.bom.gov.au/fwo/IDV60801/IDV60801.94847.axf

JavaScript Object Notation format (JSON) in row-major order
http://www.bom.gov.au/fwo/IDV60801/IDV60801.94847.json